This demonstration page uses our WeatherBlox Daily Observations layout. Learn more.

Left ArrowRight Arrow

31.84235, -102.49876

Hourly Observations for October 1, 2022

Temp ( °F °C ) Dew Point ( °F °C ) Humidity (%) Winds ( mph kmh ) Pressure ( in mb ) Visibility ( mi km ) Precip ( " mm )
12:53 am 00:53 Clear 72 22.2 46 7.8 40 40 S 8 13 29.87 1012 10 16 0.00 0.00
1:53 am 01:53 Clear 69 20.6 46 7.8 44 44 SSE 5 7 29.88 1012 10 16 0.00 0.00
2:53 am 02:53 Clear 66 18.9 46 7.8 48 48 SE 8 13 29.89 1012 10 16 0.00 0.00
3:53 am 03:53 Clear 65 18.3 46 7.8 50 50 ESE 7 11 29.90 1012 10 16 0.00 0.00
4:53 am 04:53 Clear 65 18.3 46 7.8 50 50 Calm 29.89 1012 10 16 0.00 0.00
5:53 am 05:53 Clear 63 17.2 46 7.8 54 54 ESE 7 11 29.92 1013 10 16 0.00 0.00
6:53 am 06:53 Clear 62 16.7 47 8.3 58 58 SE 8 13 29.93 1014 10 16 0.00 0.00
7:53 am 07:53 Sunny 61 16.1 47 8.3 60 60 SE 7 11 29.95 1014 10 16 0.00 0.00
8:53 am 08:53 Sunny 65 18.3 48 8.9 54 54 SE 8 13 29.96 1015 10 16 0.00 0.00
9:53 am 09:53 Sunny 71 21.7 49 9.4 45 45 S 12 19 29.96 1015 10 16 0.00 0.00
10:53 am 10:53 Sunny 76 24.4 49 9.4 39 39 S 13 20 29.96 1015 10 16 0.00 0.00
11:53 am 11:53 Sunny 80 26.7 49 9.4 34 34 S 10 17 29.96 1015 10 16 0.00 0.00
12:53 pm 12:53 Sunny 82 27.8 49 9.4 32 32 S 14 22 29.95 1014 10 16 0.00 0.00
1:53 pm 13:53 Sunny 85 29.4 46 7.8 26 26 SE 14 22 29.93 1014 10 16 0.00 0.00
2:53 pm 14:53 Sunny 86 30 46 7.8 25 25 SSE 10 17 29.91 1013 10 16 0.00 0.00
3:53 pm 15:53 Sunny 86 30 44 6.7 23 23 SSE 16 26 29.90 1012 10 16 0.00 0.00
4:53 pm 16:53 Partly Cloudy 87 30.6 43 6.1 21 21 SE 15 24 29.89 1012 10 16 0.00 0.00
5:53 pm 17:53 Sunny 85 29.4 42 5.6 22 22 SE 13 20 29.89 1012 10 16 0.00 0.00
6:53 pm 18:53 Sunny 84 28.9 43 6.1 24 24 SSE 14 22 29.90 1013 10 16 0.00 0.00
7:53 pm 19:53 Clear 80 26.7 44 6.7 28 28 SSE 9 15 29.92 1013 10 16 0.00 0.00
8:53 pm 20:53 Clear 78 25.6 45 7.2 31 31 SSE 8 13 29.93 1014 10 16 0.00 0.00
9:53 pm 21:53 Clear 76 24.4 47 8.3 36 36 SSE 8 13 29.96 1015 10 16 0.00 0.00
10:53 pm 22:53 Clear 72 22.2 47 8.3 41 41 E 9 15 29.98 1015 10 16 0.00 0.00
11:53 pm 23:53 Clear 73 22.8 47 8.3 39 39 SE 9 15 29.98 1015 10 16 0.00 0.00

Powered by AerisWeather